Location: Clayton (historical)
(34.0300°N, 118.0259°W)
Time: 01:08:31
(UTC+00:00)

Envisat - Pass Details

Date: 23 January 2021
Orbit: 764 x 766 km, 98.1° (Epoch: 06 March)

Event Time Altitude Azimuth Distance (km) Brightness Sun altitude
Rises 02:00:08 0° 206° (SSW) 3,217 6.9 -10.0°
Reaches altitude 10° 02:03:11 10° 225° (SW) 2,296 6.5 -10.6°
Maximum altitude 02:06:30 18° 266° (W) 1,835 6.2 -11.2°
Drops below altitude 10° 02:09:50 10° 308° (NW) 2,306 6.0 -11.9°
Sets 02:12:56 0° 327° (NNW) 3,237 6.5 -12.5°
